D-SAT (42794 NORAD) Tracking and Keplerian Element Data

This shows tracking and keplerian element data for the satellite.

Feedback or suggestion? Click here.




ElementValue
Catalog42794
NameD-SAT
Epoch Orbit7628
Epoch Day319.58822553
Epoch Year2018
RAAN8.3704
Inclination97.5723
Eccentricity0.0127965
Argument of Perigee137.8197
Mean Anonmoly223.2955
Mean Motion14.90967416
Decay Rate1.78E-06
L11 42794U 17036AF 18319.58822553 .00000178 00000-0 20810-4 0 9994
L22 42794 97.5723 8.3704 0127965 137.8197 223.2955 14.90967416 76287

Live tracking and technical data element details for D-SAT (NORAD 42794). D-SAT can be tracked NOW for your location showing map with azimuth and elevation plus other details from your city location.

Track the satellite on the map from your city or location and see movement details for azimuth, elevation, latitude, longitude, range, height, and movement on the map or in text.







IsCatalogInMostPopularTable: catalog: 42794, numindb: 145
Update: records affected: 1



GetName: 42794 D-SAT

Hit Count: updated at: Fri, 16 Nov 2018 09:54:29 GMT